Home > Weather > Gomel > Past weeks

Flag for Belarus Weather for the Past 2 Weeks in Gomel, Belarus

Now
63 °F

Sunny.


Feels Like: 63 °F
Forecast: 47 / 69 °F
Wind: 13 mph from North

Location: Gomel'

Current Time: May 3, 2016 at 11:52:10 AM

Latest Report: May 3, 2016 at 11:00 AM


Visibility: 10 mi

Pressure: 30.12 "Hg

Humidity: 59%

Dew Point: 48 °F

Location of GomelLocation

Historic Weather in Gomel — Graph

°F

Gomel Temperature Yesterday

Maximum temperature yesterday: 66 °F (at 2:00 PM)
Minimum temperature yesterday: 50 °F (at 6:00 AM)
Average temperature yesterday: 59 °F

High & Low Weather Summary for the Past Weeks

 TemperatureHumidityPressure
High68 °F (May 1, 2:00 PM)100% (Apr 19, 5:00 AM)30.27 "Hg (Apr 19, 5:00 AM)
Low36 °F (Apr 22, 12:00 AM)30% (May 2, 3:00 PM)29.42 "Hg (Apr 26, 9:30 AM)
Average51 °F69%29.93 "Hg
* Reported Apr 18 10:00 AM — May 3 10:30 AM, Gomel, Weather by CustomWeather, © 2016

Note: Actual official high and low records may vary slightly from our data, if they occured in-between our weather recording intervals... More about our weather records

Advertising

Gomel Weather History for the Previous 24 Hours

Scroll right to see more
 ConditionsComfort  
Time TempWeatherWind HumidityBarometerVisibility
10:30 AM
Tue, May 3
61 °FSunny.13 mph59%30.12 "Hg10 mi
10:00 AM61 °FSunny.13 mph59%30.12 "Hg10 mi
9:30 AM59 °FSunny.13 mph68%30.12 "Hg10 mi
9:00 AM59 °FSunny.15 mph68%30.12 "Hg10 mi
8:30 AM55 °FSunny.10 mph72%30.15 "Hg10 mi
8:00 AM55 °FSunny.8 mph72%30.12 "Hg10 mi
7:30 AM50 °FSunny.8 mph82%30.12 "Hg10 mi
7:00 AM50 °FSunny.6 mph82%30.12 "Hg10 mi
6:30 AM50 °FSunny.6 mph88%30.12 "Hg10 mi
6:00 AM50 °FClear.6 mph88%30.12 "Hg10 mi
5:00 AM50 °FClear.3 mph94%30.12 "Hg10 mi
4:00 AM54 °FClear.1 mph88%30.12 "Hg10 mi
2:00 AM54 °FClear.1 mph88%30.15 "Hg10 mi
1:00 AM54 °FClear.1 mph88%30.15 "Hg10 mi
12:00 AM54 °FClear.1 mph82%30.15 "Hg10 mi
11:00 PM
Mon, May 2
54 °FClear.1 mph77%30.15 "Hg10 mi
10:00 PM57 °FClear.6 mph63%30.15 "Hg10 mi
9:00 PM57 °FSunny.6 mph63%30.18 "Hg10 mi
8:00 PM59 °FPartly sunny.6 mph59%30.18 "HgN/A
7:30 PM64 °FPartly sunny.6 mph43%30.18 "HgN/A
7:00 PM64 °FPartly sunny.6 mph43%30.18 "HgN/A
6:30 PM66 °FPartly sunny.6 mph35%30.18 "HgN/A
6:00 PM66 °FPartly sunny.3 mph35%30.18 "HgN/A
5:30 PM66 °FPartly sunny.6 mph35%30.18 "HgN/A
5:00 PM66 °FPartly sunny.6 mph35%30.21 "HgN/A
4:30 PM66 °FPartly sunny.3 mph32%30.21 "HgN/A
4:00 PM66 °FPartly sunny.6 mph32%30.21 "HgN/A
3:30 PM66 °FBroken clouds.1 mph30%30.21 "HgN/A
3:00 PM66 °FBroken clouds.3 mph30%30.24 "HgN/A
2:30 PM66 °FBroken clouds.6 mph35%30.24 "HgN/A
2:00 PM66 °FBroken clouds.1 mph35%30.24 "HgN/A
1:30 PM64 °FBroken clouds.1 mph37%30.24 "HgN/A
1:00 PM64 °FBroken clouds.1 mph37%30.24 "HgN/A
12:30 PM64 °FPartly sunny.1 mph46%30.27 "HgN/A
12:00 PM64 °FPartly sunny.3 mph46%30.27 "HgN/A
11:30 AM59 °FPartly sunny.1 mph63%30.27 "HgN/A
11:00 AM59 °FPartly sunny.1 mph63%30.27 "HgN/A
Weather by CustomWeather, © 2016

See weather overviewHow to use our weather pages